| time (UTC) | temp F | wind direction | speed MPH | gust MPH | rain 1hr in | rain 24hr in | rain mn in | humidity % | barometer mb |
| 20260902193004 | 68 | 166 | 3.0 | 6.0 | 0.00 | 0.03 | 0.03 | 77 | 1022.5 |
| 20260902192502 | 68 | 54 | 2.0 | 5.0 | 0.00 | 0.03 | 0.03 | 77 | 1022.6 |
| 20260902192004 | 68 | 112 | 1.0 | 4.0 | 0.00 | 0.03 | 0.03 | 77 | 1022.6 |
| 20260902191505 | 68 | 137 | 1.0 | 5.0 | 0.00 | 0.03 | 0.03 | 77 | 1022.6 |
| 20260902191003 | 68 | 162 | 1.0 | 6.0 | 0.00 | 0.03 | 0.03 | 77 | 1022.7 |
| 20260902190504 | 68 | 181 | 2.0 | 6.0 | 0.00 | 0.03 | 0.03 | 77 | 1022.7 |
| 20260902190009 | 68 | 222 | 0.0 | 5.0 | 0.00 | 0.03 | 0.03 | 78 | 1022.7 |
| 20260902185505 | 68 | 127 | 2.0 | 6.0 | 0.00 | 0.03 | 0.03 | 78 | 1022.6 |
| 20260902185004 | 68 | 165 | 2.0 | 6.0 | 0.00 | 0.03 | 0.03 | 77 | 1022.7 |
| 20260902184513 | 68 | 167 | 0.0 | 7.0 | 0.00 | 0.03 | 0.03 | 77 | 1022.7 |
| 20260902184006 | 68 | 161 | 1.0 | 7.0 | 0.00 | 0.03 | 0.03 | 77 | 1022.6 |
| 20260902183508 | 68 | 190 | 2.0 | 6.0 | 0.00 | 0.03 | 0.03 | 77 | 1022.5 |
| 20260902183014 | 68 | 149 | 2.0 | 7.0 | 0.00 | 0.03 | 0.03 | 77 | 1022.4 |
| 20260902182510 | 68 | 58 | 2.0 | 7.0 | 0.00 | 0.03 | 0.03 | 77 | 1022.2 |
| 20260902182002 | 68 | 148 | 3.0 | 7.0 | 0.00 | 0.03 | 0.03 | 78 | 1022.2 |
| 20260902181504 | 68 | 144 | 1.0 | 7.0 | 0.00 | 0.03 | 0.03 | 78 | 1022.2 |
| 20260902181003 | 68 | 160 | 1.0 | 6.0 | 0.00 | 0.03 | 0.03 | 78 | 1022.3 |
| 20260902180503 | 68 | 76 | 2.0 | 6.0 | 0.00 | 0.03 | 0.03 | 77 | 1022.5 |
| 20260902180014 | 68 | 176 | 2.0 | 6.0 | 0.00 | 0.03 | 0.03 | 77 | 1022.5 |
| 20260902175506 | 68 | 174 | 1.0 | 6.0 | 0.00 | 0.03 | 0.03 | 77 | 1022.6 |
| 20260902175006 | 68 | 164 | 3.0 | 6.0 | 0.00 | 0.03 | 0.03 | 77 | 1022.6 |
| 20260902174513 | 69 | 179 | 2.0 | 6.0 | 0.00 | 0.03 | 0.03 | 76 | 1022.6 |
| 20260902174007 | 69 | 214 | 2.0 | 6.0 | 0.00 | 0.03 | 0.03 | 76 | 1022.6 |
| 20260902173509 | 69 | 134 | 1.0 | 6.0 | 0.00 | 0.03 | 0.03 | 76 | 1022.5 |
| 20260902173014 | 69 | 182 | 0.0 | 6.0 | 0.00 | 0.03 | 0.03 | 75 | 1022.5 |
| 20260902172510 | 69 | 210 | 1.0 | 6.0 | 0.00 | 0.03 | 0.03 | 72 | 1022.7 |
| 20260902172010 | 69 | 167 | 2.0 | 6.0 | 0.00 | 0.03 | 0.03 | 71 | 1022.7 |
| 20260902171516 | 69 | 226 | 2.0 | 6.0 | 0.00 | 0.03 | 0.03 | 73 | 1022.7 |
| 20260902171008 | 69 | 59 | 3.0 | 6.0 | 0.00 | 0.03 | 0.03 | 74 | 1022.7 |
| 20260902170504 | 69 | 250 | 1.0 | 5.0 | 0.00 | 0.03 | 0.03 | 74 | 1022.7 |
| 20260902170005 | 68 | 177 | 2.0 | 8.0 | 0.00 | 0.03 | 0.03 | 74 | 1022.7 |
| 20260902165504 | 69 | 225 | 4.0 | 8.0 | 0.00 | 0.03 | 0.03 | 73 | 1022.8 |
| 20260902165003 | 69 | 188 | 3.0 | 7.0 | 0.00 | 0.03 | 0.03 | 74 | 1022.8 |
| 20260902164506 | 69 | 179 | 2.0 | 7.0 | 0.00 | 0.03 | 0.03 | 73 | 1022.8 |
| 20260902164003 | 69 | 174 | 3.0 | 8.0 | 0.00 | 0.03 | 0.03 | 74 | 1022.9 |
| 20260902163506 | 69 | 188 | 2.0 | 8.0 | 0.00 | 0.03 | 0.03 | 74 | 1022.9 |
| 20260902163012 | 68 | 251 | 2.0 | 6.0 | 0.00 | 0.03 | 0.03 | 74 | 1023.0 |
| 20260902162506 | 68 | 248 | 2.0 | 6.0 | 0.00 | 0.03 | 0.03 | 76 | 1023.2 |
| 20260902162012 | 68 | 148 | 2.0 | 6.0 | 0.00 | 0.03 | 0.03 | 76 | 1023.1 |
| 20260902161529 | 68 | 194 | 3.0 | 6.0 | 0.00 | 0.03 | 0.03 | 75 | 1023.0 |
| 20260902161012 | 68 | 165 | 0.0 | 5.0 | 0.00 | 0.03 | 0.03 | 78 | 1023.1 |
| 20260902160512 | 68 | 130 | 1.0 | 8.0 | 0.00 | 0.03 | 0.03 | 77 | 1023.1 |
| 20260902160019 | 68 | 204 | 3.0 | 8.0 | 0.00 | 0.03 | 0.03 | 77 | 1023.3 |
| 20260902155511 | 67 | 70 | 1.0 | 5.0 | 0.00 | 0.03 | 0.03 | 78 | 1023.4 |
| 20260902155002 | 67 | 189 | 1.0 | 7.0 | 0.00 | 0.03 | 0.03 | 79 | 1023.5 |
| 20260902154504 | 67 | 136 | 2.0 | 7.0 | 0.00 | 0.03 | 0.03 | 78 | 1023.7 |
| 20260902154003 | 67 | 148 | 1.0 | 6.0 | 0.00 | 0.03 | 0.03 | 78 | 1023.8 |
| 20260902153504 | 67 | 171 | 2.0 | 7.0 | 0.00 | 0.03 | 0.03 | 80 | 1023.7 |
| 20260902153012 | 67 | 74 | 0.0 | 7.0 | 0.00 | 0.03 | 0.03 | 80 | 1023.7 |
| 20260902152507 | 66 | 150 | 1.0 | 6.0 | 0.00 | 0.03 | 0.03 | 82 | 1023.6 |
| 20260902152006 | 66 | 200 | 2.0 | 6.0 | 0.00 | 0.03 | 0.03 | 82 | 1023.6 |
| 20260902151515 | 66 | 188 | 3.0 | 6.0 | 0.00 | 0.03 | 0.03 | 82 | 1023.6 |
| 20260902151010 | 66 | 171 | 1.0 | 6.0 | 0.00 | 0.03 | 0.03 | 85 | 1023.6 |
| 20260902150512 | 66 | 206 | 0.0 | 4.0 | 0.00 | 0.03 | 0.03 | 86 | 1023.8 |
| 20260902150023 | 65 | 129 | 1.0 | 4.0 | 0.00 | 0.03 | 0.03 | 85 | 1023.8 |
| 20260902145512 | 65 | 167 | 0.0 | 4.0 | 0.00 | 0.03 | 0.03 | 86 | 1023.9 |
| 20260902145012 | 65 | 144 | 0.0 | 4.0 | 0.00 | 0.03 | 0.03 | 86 | 1023.9 |
| 20260902144525 | 65 | 122 | 0.0 | 4.0 | 0.00 | 0.03 | 0.03 | 85 | 1023.9 |
| 20260902144012 | 65 | 245 | 1.0 | 4.0 | 0.00 | 0.03 | 0.03 | 85 | 1023.9 |
| 20260902143504 | 65 | 158 | 1.0 | 5.0 | 0.00 | 0.03 | 0.03 | 86 | 1023.7 |
| 20260902143010 | 65 | 184 | 2.0 | 5.0 | 0.00 | 0.03 | 0.03 | 88 | 1023.6 |
| 20260902142504 | 65 | 185 | 2.0 | 4.0 | 0.00 | 0.03 | 0.03 | 87 | 1023.5 |
| 20260902142004 | 64 | 87 | 1.0 | 4.0 | 0.00 | 0.03 | 0.03 | 89 | 1023.4 |
| 20260902141513 | 64 | 167 | 2.0 | 5.0 | 0.00 | 0.03 | 0.03 | 89 | 1023.5 |
| 20260902141008 | 64 | 224 | 2.0 | 5.0 | 0.00 | 0.03 | 0.03 | 89 | 1023.4 |
| 20260902140508 | 64 | 96 | 2.0 | 6.0 | 0.00 | 0.03 | 0.03 | 90 | 1023.3 |
| 20260902140020 | 63 | 117 | 2.0 | 6.0 | 0.00 | 0.03 | 0.03 | 90 | 1023.2 |
| 20260902135508 | 63 | 98 | 1.0 | 5.0 | 0.00 | 0.03 | 0.03 | 92 | 1023.0 |
| 20260902135012 | 63 | 72 | 1.0 | 6.0 | 0.00 | 0.03 | 0.03 | 93 | 1023.0 |
| 20260902134527 | 63 | 150 | 1.0 | 6.0 | 0.00 | 0.03 | 0.03 | 94 | 1022.9 |
| 20260902134013 | 62 | 169 | 1.0 | 4.0 | 0.00 | 0.03 | 0.03 | 94 | 1022.9 |
| 20260902133513 | 62 | 212 | 2.0 | 4.0 | 0.00 | 0.03 | 0.03 | 94 | 1022.8 |
| 20260902133031 | 62 | 173 | 1.0 | 4.0 | 0.00 | 0.03 | 0.03 | 94 | 1022.9 |
| 20260902132513 | 62 | 160 | 0.0 | 4.0 | 0.00 | 0.03 | 0.03 | 94 | 1022.8 |
| 20260902132013 | 61 | 135 | 1.0 | 4.0 | 0.00 | 0.03 | 0.03 | 94 | 1022.9 |
| 20260902131509 | 61 | 131 | 0.0 | 3.0 | 0.00 | 0.03 | 0.03 | 94 | 1023.0 |
| 20260902131006 | 61 | 103 | 0.0 | 3.0 | 0.00 | 0.04 | 0.03 | 94 | 1023.1 |
| 20260902130506 | 61 | 167 | 1.0 | 3.0 | 0.00 | 0.04 | 0.03 | 94 | 1023.1 |
| 20260902130015 | 61 | 213 | 1.0 | 3.0 | 0.00 | 0.05 | 0.03 | 94 | 1023.1 |
| 20260902125510 | 61 | 129 | 0.0 | 3.0 | 0.00 | 0.06 | 0.03 | 94 | 1023.0 |
| 20260902125010 | 61 | 169 | 1.0 | 3.0 | 0.00 | 0.06 | 0.03 | 94 | 1022.9 |
| 20260902124523 | 61 | 209 | 0.0 | 4.0 | 0.00 | 0.07 | 0.03 | 94 | 1023.0 |
| 20260902124011 | 61 | 113 | 0.0 | 4.0 | 0.00 | 0.08 | 0.03 | 94 | 1022.8 |
| 20260902123514 | 61 | 148 | 0.0 | 2.0 | 0.00 | 0.09 | 0.03 | 95 | 1022.9 |
| 20260902123026 | 61 | 146 | 0.0 | 0.0 | 0.00 | 0.09 | 0.03 | 95 | 1022.9 |
| 20260902122515 | 60 | 146 | 0.0 | 0.0 | 0.00 | 0.10 | 0.03 | 95 | 1023.0 |
| 20260902122012 | 60 | 146 | 0.0 | 0.0 | 0.00 | 0.11 | 0.03 | 95 | 1023.1 |
| 20260902121528 | 60 | 145 | 0.0 | 0.0 | 0.00 | 0.11 | 0.03 | 94 | 1023.2 |
| 20260902121014 | 60 | 145 | 0.0 | 0.0 | 0.00 | 0.12 | 0.03 | 94 | 1023.2 |
| 20260902120513 | 60 | 143 | 0.0 | 0.0 | 0.00 | 0.12 | 0.03 | 95 | 1023.3 |
| 20260902120012 | 60 | 143 | 0.0 | 0.0 | 0.00 | 0.13 | 0.03 | 94 | 1023.3 |
| 20260902115509 | 60 | 143 | 0.0 | 0.0 | 0.00 | 0.14 | 0.03 | 94 | 1023.4 |
| 20260902115006 | 60 | 165 | 0.0 | 0.0 | 0.00 | 0.15 | 0.03 | 94 | 1023.3 |
| 20260902114503 | 60 | 165 | 0.0 | 0.0 | 0.00 | 0.16 | 0.03 | 95 | 1023.3 |
| 20260902114006 | 60 | 102 | 0.0 | 0.0 | 0.00 | 0.17 | 0.03 | 94 | 1023.2 |
| 20260902113502 | 60 | 102 | 0.0 | 0.0 | 0.00 | 0.18 | 0.03 | 94 | 1023.2 |
| 20260902113005 | 60 | 102 | 0.0 | 0.0 | 0.00 | 0.19 | 0.03 | 95 | 1023.2 |
| 20260902112503 | 60 | 102 | 0.0 | 0.0 | 0.00 | 0.19 | 0.03 | 95 | 1023.1 |
| 20260902112004 | 60 | 102 | 0.0 | 0.0 | 0.00 | 0.20 | 0.03 | 95 | 1023.0 |
| 20260902111504 | 60 | 102 | 0.0 | 0.0 | 0.00 | 0.20 | 0.03 | 95 | 1023.0 |
| 20260902111004 | 60 | 102 | 0.0 | 0.0 | 0.00 | 0.20 | 0.03 | 95 | 1022.9 |
| 20260902110506 | 60 | 102 | 0.0 | 0.0 | 0.00 | 0.20 | 0.03 | 95 | 1023.0 |
| 20260902110009 | 60 | 102 | 0.0 | 0.0 | 0.00 | 0.20 | 0.03 | 95 | 1022.9 |
| 20260902105507 | 60 | 102 | 0.0 | 0.0 | 0.00 | 0.20 | 0.03 | 94 | 1022.9 |
| 20260902105010 | 60 | 102 | 0.0 | 0.0 | 0.00 | 0.20 | 0.03 | 95 | 1022.8 |
| 20260902104518 | 60 | 102 | 0.0 | 0.0 | 0.00 | 0.20 | 0.03 | 95 | 1022.7 |
| 20260902104009 | 60 | 102 | 0.0 | 0.0 | 0.00 | 0.20 | 0.03 | 95 | 1022.6 |
| 20260902103510 | 60 | 102 | 0.0 | 0.0 | 0.00 | 0.20 | 0.03 | 95 | 1022.5 |
| 20260902103019 | 60 | 102 | 0.0 | 0.0 | 0.00 | 0.20 | 0.03 | 95 | 1022.6 |
| 20260902102503 | 60 | 102 | 0.0 | 0.0 | 0.00 | 0.20 | 0.03 | 95 | 1022.5 |
| 20260902102003 | 60 | 102 | 0.0 | 0.0 | 0.00 | 0.20 | 0.03 | 95 | 1022.4 |
| 20260902101504 | 60 | 102 | 0.0 | 0.0 | 0.00 | 0.20 | 0.03 | 95 | 1022.3 |
| 20260902101004 | 60 | 102 | 0.0 | 0.0 | 0.00 | 0.20 | 0.03 | 94 | 1022.3 |
| 20260902100504 | 60 | 102 | 0.0 | 0.0 | 0.00 | 0.20 | 0.03 | 94 | 1022.3 |
| 20260902100008 | 60 | 102 | 0.0 | 1.0 | 0.00 | 0.20 | 0.03 | 94 | 1022.2 |
| 20260902095506 | 60 | 102 | 0.0 | 1.0 | 0.00 | 0.20 | 0.03 | 94 | 1022.1 |
| 20260902095005 | 60 | 102 | 0.0 | 0.0 | 0.00 | 0.20 | 0.03 | 94 | 1022.1 |
| 20260902094511 | 60 | 102 | 0.0 | 0.0 | 0.00 | 0.20 | 0.03 | 94 | 1022.1 |
| 20260902094007 | 60 | 102 | 0.0 | 0.0 | 0.00 | 0.20 | 0.03 | 94 | 1022.1 |
| 20260902093509 | 60 | 102 | 0.0 | 0.0 | 0.00 | 0.20 | 0.03 | 94 | 1022.1 |
| 20260902093016 | 60 | 102 | 0.0 | 0.0 | 0.00 | 0.20 | 0.03 | 94 | 1022.2 |
| 20260902092514 | 60 | 102 | 0.0 | 0.0 | 0.00 | 0.20 | 0.03 | 95 | 1022.2 |
| 20260902092011 | 60 | 102 | 0.0 | 0.0 | 0.00 | 0.20 | 0.03 | 94 | 1022.2 |
| 20260902091524 | 60 | 102 | 0.0 | 0.0 | 0.00 | 0.20 | 0.03 | 94 | 1022.2 |
| 20260902091002 | 60 | 102 | 0.0 | 0.0 | 0.00 | 0.20 | 0.03 | 94 | 1022.1 |
| 20260902090502 | 60 | 102 | 0.0 | 0.0 | 0.00 | 0.20 | 0.03 | 94 | 1022.1 |
| 20260902090006 | 60 | 102 | 0.0 | 0.0 | 0.00 | 0.20 | 0.03 | 94 | 1022.0 |
| 20260902085503 | 60 | 102 | 0.0 | 0.0 | 0.00 | 0.20 | 0.03 | 94 | 1021.9 |
| 20260902085003 | 60 | 102 | 0.0 | 0.0 | 0.00 | 0.20 | 0.03 | 94 | 1022.0 |
| 20260902084516 | 60 | 102 | 0.0 | 0.0 | 0.00 | 0.20 | 0.03 | 94 | 1022.0 |
| 20260902084004 | 61 | 102 | 0.0 | 0.0 | 0.00 | 0.20 | 0.03 | 94 | 1021.9 |
| 20260902083508 | 61 | 102 | 0.0 | 0.0 | 0.00 | 0.20 | 0.03 | 94 | 1021.9 |
| 20260902083015 | 61 | 102 | 0.0 | 0.0 | 0.00 | 0.20 | 0.03 | 94 | 1022.0 |
| 20260902082509 | 61 | 102 | 0.0 | 0.0 | 0.00 | 0.20 | 0.03 | 94 | 1022.1 |
| 20260902082012 | 61 | 102 | 0.0 | 0.0 | 0.00 | 0.20 | 0.03 | 94 | 1022.1 |
| 20260902081520 | 61 | 102 | 0.0 | 0.0 | 0.00 | 0.20 | 0.03 | 94 | 1022.1 |
| 20260902081010 | 61 | 102 | 0.0 | 0.0 | 0.00 | 0.20 | 0.03 | 94 | 1022.1 |
| 20260902080512 | 61 | 102 | 0.0 | 0.0 | 0.00 | 0.20 | 0.03 | 94 | 1022.1 |
| 20260902080026 | 61 | 102 | 0.0 | 0.0 | 0.00 | 0.20 | 0.03 | 94 | 1022.2 |
| 20260902075513 | 61 | 102 | 0.0 | 0.0 | 0.00 | 0.20 | 0.03 | 94 | 1022.2 |
| 20260902075003 | 61 | 102 | 0.0 | 0.0 | 0.00 | 0.20 | 0.03 | 94 | 1022.2 |
| 20260902074508 | 61 | 102 | 0.0 | 0.0 | 0.00 | 0.20 | 0.03 | 94 | 1022.2 |
| 20260902074005 | 61 | 102 | 0.0 | 0.0 | 0.00 | 0.20 | 0.03 | 94 | 1022.3 |
| 20260902073503 | 61 | 102 | 0.0 | 0.0 | 0.00 | 0.20 | 0.03 | 94 | 1022.3 |
| 20260902073010 | 61 | 102 | 0.0 | 0.0 | 0.00 | 0.20 | 0.03 | 94 | 1022.4 |
| 20260902072510 | 61 | 102 | 0.0 | 0.0 | 0.00 | 0.20 | 0.03 | 94 | 1022.3 |
| 20260902072011 | 61 | 102 | 0.0 | 0.0 | 0.00 | 0.20 | 0.03 | 94 | 1022.3 |
| 20260902071518 | 61 | 102 | 0.0 | 0.0 | 0.00 | 0.20 | 0.03 | 94 | 1022.3 |
| 20260902071010 | 61 | 102 | 0.0 | 0.0 | 0.00 | 0.20 | 0.03 | 94 | 1022.2 |
| 20260902070509 | 61 | 102 | 0.0 | 0.0 | 0.00 | 0.20 | 0.03 | 93 | 1022.1 |
| 20260902070023 | 61 | 102 | 0.0 | 0.0 | 0.01 | 0.20 | 0.03 | 94 | 1022.1 |
| 20260902065511 | 61 | 102 | 0.0 | 0.0 | 0.02 | 0.20 | 0.03 | 93 | 1022.1 |
| 20260902065011 | 61 | 102 | 0.0 | 0.0 | 0.02 | 0.20 | 0.03 | 93 | 1022.1 |
| 20260902064528 | 61 | 102 | 0.0 | 0.0 | 0.03 | 0.20 | 0.03 | 93 | 1022.1 |
| 20260902064018 | 61 | 102 | 0.0 | 0.0 | 0.03 | 0.20 | 0.03 | 93 | 1022.1 |
| 20260902063505 | 61 | 102 | 0.0 | 0.0 | 0.03 | 0.20 | 0.03 | 93 | 1022.1 |
| 20260902063009 | 61 | 102 | 0.0 | 0.0 | 0.03 | 0.20 | 0.03 | 93 | 1022.1 |
| 20260902062504 | 61 | 102 | 0.0 | 0.0 | 0.03 | 0.20 | 0.03 | 93 | 1022.0 |
| 20260902062004 | 61 | 102 | 0.0 | 0.0 | 0.03 | 0.20 | 0.03 | 93 | 1022.0 |
| 20260902061514 | 61 | 102 | 0.0 | 0.0 | 0.03 | 0.20 | 0.03 | 93 | 1022.1 |
| 20260902061007 | 61 | 102 | 0.0 | 2.0 | 0.03 | 0.20 | 0.03 | 93 | 1022.1 |
| 20260902060507 | 61 | 101 | 0.0 | 2.0 | 0.03 | 0.20 | 0.03 | 93 | 1021.9 |
| 20260902060018 | 61 | 260 | 0.0 | 0.0 | 0.02 | 0.19 | 0.02 | 93 | 1021.9 |
| 20260902055513 | 61 | 260 | 0.0 | 0.0 | 0.01 | 0.18 | 0.01 | 92 | 1021.8 |
| 20260902055012 | 61 | 261 | 0.0 | 0.0 | 0.01 | 0.18 | 0.01 | 92 | 1021.8 |
| 20260902054523 | 61 | 261 | 0.0 | 0.0 | 0.00 | 0.17 | 0.00 | 92 | 1021.8 |
| 20260902054013 | 62 | 261 | 0.0 | 0.0 | 0.00 | 0.17 | 0.00 | 92 | 1021.8 |
| 20260902053514 | 61 | 261 | 0.0 | 0.0 | 0.00 | 0.17 | 0.00 | 92 | 1021.7 |
| 20260902053028 | 61 | 261 | 0.0 | 0.0 | 0.00 | 0.17 | 0.00 | 92 | 1021.8 |
| 20260902052515 | 62 | 261 | 0.0 | 0.0 | 0.00 | 0.17 | 0.00 | 92 | 1021.7 |
| 20260902052004 | 62 | 261 | 0.0 | 0.0 | 0.00 | 0.17 | 0.00 | 92 | 1021.7 |
| 20260902051510 | 62 | 261 | 0.0 | 0.0 | 0.00 | 0.17 | 0.00 | 92 | 1021.6 |
| 20260902051010 | 62 | 261 | 0.0 | 0.0 | 0.00 | 0.17 | 0.00 | 91 | 1021.5 |
| 20260902050508 | 62 | 261 | 0.0 | 0.0 | 0.00 | 0.17 | 0.00 | 92 | 1021.5 |
| 20260902050016 | 62 | 261 | 0.0 | 0.0 | 0.00 | 0.17 | 0.00 | 91 | 1021.4 |
| 20260902045515 | 62 | 261 | 0.0 | 0.0 | 0.00 | 0.17 | 0.00 | 92 | 1021.4 |
| 20260902045008 | 62 | 261 | 0.0 | 0.0 | 0.00 | 0.17 | 0.00 | 91 | 1021.3 |
| 20260902044524 | 62 | 261 | 0.0 | 0.0 | 0.00 | 0.17 | 0.00 | 91 | 1021.2 |
| 20260902044011 | 62 | 261 | 0.0 | 0.0 | 0.00 | 0.17 | 0.00 | 92 | 1021.1 |
| 20260902043513 | 62 | 261 | 0.0 | 0.0 | 0.00 | 0.17 | 0.00 | 92 | 1021.0 |
| 20260902043025 | 62 | 261 | 0.0 | 0.0 | 0.00 | 0.17 | 0.00 | 91 | 1020.7 |
| 20260902042514 | 61 | 261 | 0.0 | 0.0 | 0.00 | 0.17 | 0.00 | 91 | 1020.6 |
| 20260902042015 | 61 | 261 | 0.0 | 0.0 | 0.00 | 0.17 | 0.00 | 91 | 1020.5 |
| 20260902041546 | 61 | 261 | 0.0 | 0.0 | 0.00 | 0.17 | 0.00 | 91 | 1020.5 |
| 20260902041016 | 62 | 261 | 0.0 | 0.0 | 0.00 | 0.17 | 0.00 | 91 | 1020.4 |
| 20260902040516 | 62 | 261 | 0.0 | 0.0 | 0.00 | 0.17 | 0.00 | 91 | 1020.4 |
| 20260902040018 | 62 | 261 | 0.0 | 0.0 | 0.00 | 0.17 | 0.00 | 91 | 1020.4 |
| 20260902035508 | 62 | 261 | 0.0 | 0.0 | 0.00 | 0.17 | 0.17 | 91 | 1020.4 |
| 20260902035007 | 62 | 261 | 0.0 | 0.0 | 0.00 | 0.17 | 0.17 | 91 | 1020.4 |
| 20260902034520 | 62 | 261 | 0.0 | 0.0 | 0.00 | 0.17 | 0.17 | 91 | 1020.5 |
| 20260902034012 | 62 | 261 | 0.0 | 0.0 | 0.00 | 0.17 | 0.17 | 91 | 1020.4 |
| 20260902033510 | 62 | 261 | 0.0 | 0.0 | 0.00 | 0.17 | 0.17 | 91 | 1020.4 |
| 20260902033026 | 62 | 261 | 0.0 | 0.0 | 0.00 | 0.17 | 0.17 | 91 | 1020.4 |
| 20260902032513 | 62 | 261 | 0.0 | 0.0 | 0.00 | 0.17 | 0.17 | 90 | 1020.3 |
| 20260902032015 | 62 | 261 | 0.0 | 0.0 | 0.00 | 0.17 | 0.17 | 90 | 1020.3 |
| 20260902031527 | 62 | 261 | 0.0 | 0.0 | 0.00 | 0.17 | 0.17 | 90 | 1020.4 |
| 20260902031016 | 62 | 261 | 0.0 | 0.0 | 0.00 | 0.17 | 0.17 | 90 | 1020.4 |
| 20260902030516 | 62 | 261 | 0.0 | 0.0 | 0.00 | 0.17 | 0.17 | 89 | 1020.3 |
| 20260902030030 | 62 | 261 | 0.0 | 0.0 | 0.00 | 0.17 | 0.17 | 89 | 1020.2 |
| 20260902025506 | 62 | 261 | 0.0 | 0.0 | 0.00 | 0.17 | 0.17 | 89 | 1020.3 |
| 20260902025008 | 62 | 261 | 0.0 | 0.0 | 0.00 | 0.17 | 0.17 | 89 | 1020.3 |
| 20260902024516 | 62 | 261 | 0.0 | 0.0 | 0.00 | 0.17 | 0.17 | 89 | 1020.3 |
| 20260902024009 | 62 | 261 | 0.0 | 0.0 | 0.00 | 0.17 | 0.17 | 89 | 1020.2 |
| 20260902023510 | 62 | 261 | 0.0 | 0.0 | 0.00 | 0.17 | 0.17 | 89 | 1020.1 |
| 20260902023006 | 62 | 261 | 0.0 | 0.0 | 0.00 | 0.17 | 0.17 | 89 | 1020.2 |
| 20260902022503 | 62 | 261 | 0.0 | 0.0 | 0.00 | 0.17 | 0.17 | 89 | 1020.4 |
| 20260902022005 | 62 | 261 | 0.0 | 0.0 | 0.00 | 0.17 | 0.17 | 89 | 1020.4 |
| 20260902021506 | 62 | 261 | 0.0 | 0.0 | 0.00 | 0.17 | 0.17 | 88 | 1020.4 |
| 20260902021004 | 62 | 261 | 0.0 | 0.0 | 0.00 | 0.17 | 0.17 | 88 | 1020.3 |
| 20260902020501 | 62 | 261 | 0.0 | 0.0 | 0.00 | 0.17 | 0.17 | 88 | 1020.3 |
| 20260902020006 | 62 | 261 | 0.0 | 0.0 | 0.00 | 0.17 | 0.17 | 87 | 1020.3 |
| 20260902015503 | 62 | 261 | 0.0 | 0.0 | 0.00 | 0.17 | 0.17 | 87 | 1020.3 |
| 20260902015007 | 62 | 261 | 0.0 | 0.0 | 0.00 | 0.17 | 0.17 | 87 | 1020.3 |
| 20260902014520 | 63 | 261 | 0.0 | 0.0 | 0.00 | 0.17 | 0.17 | 87 | 1020.3 |
| 20260902014008 | 63 | 261 | 0.0 | 0.0 | 0.00 | 0.17 | 0.17 | 87 | 1020.4 |
| 20260902013506 | 63 | 261 | 0.0 | 0.0 | 0.00 | 0.17 | 0.17 | 87 | 1020.4 |
| 20260902013019 | 63 | 261 | 0.0 | 0.0 | 0.00 | 0.17 | 0.17 | 88 | 1020.4 |
| 20260902012507 | 63 | 261 | 0.0 | 0.0 | 0.00 | 0.17 | 0.17 | 87 | 1020.4 |
| 20260902012014 | 63 | 261 | 0.0 | 1.0 | 0.00 | 0.17 | 0.17 | 87 | 1020.4 |
| 20260902011523 | 63 | 261 | 0.0 | 2.0 | 0.00 | 0.17 | 0.17 | 87 | 1020.3 |
| 20260902011003 | 63 | 261 | 0.0 | 2.0 | 0.00 | 0.17 | 0.17 | 87 | 1020.3 |
| 20260902010502 | 63 | 261 | 0.0 | 4.0 | 0.00 | 0.17 | 0.17 | 88 | 1020.4 |
| 20260902010005 | 63 | 253 | 0.0 | 4.0 | 0.00 | 0.17 | 0.17 | 88 | 1020.4 |
| 20260902005504 | 63 | 250 | 0.0 | 4.0 | 0.00 | 0.17 | 0.17 | 89 | 1020.4 |
| 20260902005003 | 64 | 266 | 1.0 | 5.0 | 0.00 | 0.17 | 0.17 | 90 | 1020.3 |
| 20260902004514 | 64 | 230 | 2.0 | 5.0 | 0.00 | 0.17 | 0.17 | 90 | 1020.3 |
| 20260902004006 | 64 | 276 | 1.0 | 4.0 | 0.00 | 0.17 | 0.17 | 90 | 1020.3 |
| 20260902003506 | 64 | 235 | 1.0 | 4.0 | 0.00 | 0.17 | 0.17 | 90 | 1020.2 |
| 20260902003040 | 64 | 241 | 1.0 | 4.0 | 0.00 | 0.17 | 0.17 | 90 | 1020.1 |
| 20260902002506 | 64 | 249 | 0.0 | 4.0 | 0.00 | 0.17 | 0.17 | 90 | 1020.1 |
| 20260902002010 | 64 | 227 | 1.0 | 4.0 | 0.00 | 0.17 | 0.17 | 89 | 1019.9 |
| 20260902001521 | 64 | 177 | 0.0 | 3.0 | 0.00 | 0.17 | 0.17 | 89 | 1019.8 |
| 20260902001011 | 64 | 226 | 0.0 | 2.0 | 0.00 | 0.17 | 0.17 | 89 | 1020.0 |
| 20260902000512 | 64 | 213 | 0.0 | 4.0 | 0.00 | 0.17 | 0.17 | 89 | 1020.0 |
| 20260902000032 | 64 | 225 | 1.0 | 4.0 | 0.00 | 0.17 | 0.17 | 89 | 1019.9 |
| 20260901235503 | 64 | 224 | 0.0 | 3.0 | 0.00 | 0.17 | 0.17 | 89 | 1019.8 |
| 20260901235003 | 64 | 183 | 0.0 | 2.0 | 0.00 | 0.17 | 0.17 | 89 | 1019.8 |
| 20260901234504 | 64 | 179 | 0.0 | 4.0 | 0.00 | 0.17 | 0.17 | 89 | 1019.7 |
| 20260901234003 | 65 | 234 | 1.0 | 4.0 | 0.00 | 0.17 | 0.17 | 88 | 1019.5 |
| 20260901233502 | 65 | 213 | 1.0 | 5.0 | 0.00 | 0.17 | 0.17 | 88 | 1019.5 |
| 20260901233010 | 65 | 172 | 1.0 | 5.0 | 0.00 | 0.17 | 0.17 | 88 | 1019.5 |
| 20260901232509 | 65 | 190 | 1.0 | 5.0 | 0.00 | 0.17 | 0.17 | 88 | 1019.7 |
| 20260901232008 | 65 | 217 | 1.0 | 5.0 | 0.00 | 0.17 | 0.17 | 87 | 1019.8 |
| 20260901231516 | 65 | 218 | 2.0 | 5.0 | 0.00 | 0.17 | 0.17 | 87 | 1019.9 |
| 20260901231009 | 65 | 235 | 2.0 | 5.0 | 0.00 | 0.17 | 0.17 | 87 | 1019.9 |
| 20260901230512 | 65 | 237 | 1.0 | 6.0 | 0.00 | 0.17 | 0.17 | 87 | 1019.8 |
| 20260901230023 | 65 | 206 | 3.0 | 6.0 | 0.00 | 0.17 | 0.17 | 86 | 1019.8 |
| 20260901225511 | 65 | 235 | 3.0 | 6.0 | 0.00 | 0.17 | 0.17 | 86 | 1019.7 |
| 20260901225011 | 66 | 249 | 2.0 | 6.0 | 0.00 | 0.17 | 0.17 | 86 | 1019.7 |
| 20260901224530 | 66 | 244 | 1.0 | 6.0 | 0.00 | 0.17 | 0.17 | 86 | 1019.7 |
| 20260901224003 | 66 | 230 | 1.0 | 5.0 | 0.00 | 0.17 | 0.17 | 86 | 1019.6 |
| 20260901223503 | 66 | 276 | 0.0 | 5.0 | 0.00 | 0.17 | 0.17 | 86 | 1019.6 |
| 20260901223007 | 66 | 281 | 2.0 | 5.0 | 0.00 | 0.17 | 0.17 | 86 | 1019.5 |
| 20260901222503 | 66 | 250 | 1.0 | 5.0 | 0.00 | 0.17 | 0.17 | 87 | 1019.5 |
| 20260901222007 | 66 | 140 | 0.0 | 5.0 | 0.00 | 0.17 | 0.17 | 87 | 1019.4 |
| 20260901221514 | 67 | 244 | 1.0 | 4.0 | 0.00 | 0.17 | 0.17 | 87 | 1019.2 |
| 20260901221006 | 67 | 184 | 1.0 | 5.0 | 0.00 | 0.17 | 0.17 | 87 | 1019.1 |
| 20260901220510 | 67 | 193 | 2.0 | 5.0 | 0.00 | 0.17 | 0.17 | 86 | 1019.2 |
| 20260901220034 | 67 | 248 | 2.0 | 6.0 | 0.00 | 0.17 | 0.17 | 87 | 1019.3 |
| 20260901215512 | 67 | 245 | 1.0 | 6.0 | 0.00 | 0.17 | 0.17 | 86 | 1019.2 |
| 20260901215014 | 67 | 233 | 3.0 | 6.0 | 0.00 | 0.17 | 0.17 | 86 | 1019.1 |
| 20260901214528 | 67 | 241 | 1.0 | 5.0 | 0.00 | 0.17 | 0.17 | 85 | 1019.2 |
| 20260901214013 | 67 | 213 | 2.0 | 5.0 | 0.00 | 0.17 | 0.17 | 85 | 1019.3 |
| 20260901213513 | 68 | 226 | 2.0 | 6.0 | 0.00 | 0.17 | 0.17 | 85 | 1019.3 |
| 20260901213031 | 68 | 167 | 2.0 | 6.0 | 0.00 | 0.17 | 0.17 | 84 | 1019.4 |
| 20260901212516 | 68 | 162 | 1.0 | 5.0 | 0.00 | 0.17 | 0.17 | 83 | 1019.3 |
| 20260901212003 | 68 | 235 | 3.0 | 5.0 | 0.00 | 0.17 | 0.17 | 83 | 1019.1 |
| 20260901211511 | 68 | 204 | 2.0 | 5.0 | 0.00 | 0.17 | 0.17 | 83 | 1019.1 |
| 20260901211003 | 68 | 216 | 2.0 | 5.0 | 0.00 | 0.17 | 0.17 | 83 | 1019.1 |
| 20260901210510 | 68 | 170 | 1.0 | 4.0 | 0.00 | 0.17 | 0.17 | 84 | 1019.2 |
| 20260901210018 | 68 | 247 | 1.0 | 4.0 | 0.00 | 0.17 | 0.17 | 84 | 1019.0 |
| 20260901205509 | 68 | 196 | 1.0 | 4.0 | 0.00 | 0.17 | 0.17 | 84 | 1018.9 |
| 20260901205015 | 68 | 219 | 0.0 | 4.0 | 0.00 | 0.17 | 0.17 | 84 | 1019.1 |
| 20260901204527 | 68 | 117 | 1.0 | 4.0 | 0.00 | 0.17 | 0.17 | 84 | 1019.1 |
| 20260901204011 | 68 | 256 | 1.0 | 5.0 | 0.00 | 0.17 | 0.17 | 84 | 1019.1 |
| 20260901203512 | 68 | 236 | 1.0 | 5.0 | 0.00 | 0.17 | 0.17 | 84 | 1018.8 |
| 20260901203033 | 68 | 232 | 1.0 | 5.0 | 0.00 | 0.17 | 0.17 | 84 | 1018.7 |
| 20260901202513 | 68 | 225 | 0.0 | 4.0 | 0.00 | 0.17 | 0.17 | 84 | 1018.7 |
| 20260901202012 | 68 | 116 | 1.0 | 4.0 | 0.00 | 0.17 | 0.17 | 84 | 1018.7 |
| 20260901201527 | 68 | 120 | 1.0 | 3.0 | 0.00 | 0.17 | 0.17 | 84 | 1018.6 |
| 20260901201016 | 68 | 179 | 1.0 | 5.0 | 0.00 | 0.17 | 0.17 | 84 | 1018.6 |
| 20260901200503 | 68 | 155 | 1.0 | 5.0 | 0.00 | 0.17 | 0.17 | 84 | 1018.7 |
| 20260901200014 | 68 | 213 | 1.0 | 5.0 | 0.00 | 0.17 | 0.17 | 83 | 1018.7 |
| 20260901195506 | 68 | 243 | 2.0 | 5.0 | 0.00 | 0.17 | 0.17 | 84 | 1018.8 |
| 20260901195008 | 67 | 208 | 1.0 | 7.0 | 0.00 | 0.17 | 0.17 | 84 | 1018.8 |
| 20260901194520 | 67 | 239 | 2.0 | 7.0 | 0.00 | 0.17 | 0.17 | 83 | 1018.7 |
| 20260901194012 | 67 | 168 | 2.0 | 6.0 | 0.00 | 0.17 | 0.17 | 84 | 1018.7 |
| 20260901193510 | 67 | 147 | 1.0 | 5.0 | 0.00 | 0.17 | 0.17 | 84 | 1018.8 |